STARLINK-35692 (66513 NORAD) Tracking and Keplerian Element Data

This shows tracking and keplerian element data for the satellite.

Feedback or suggestion? Click here.




ElementValue
Catalog66513
NameSTARLINK-35692
Epoch Orbit609
Epoch Day354.25003472
Epoch Year2025
RAAN81.4423
Inclination43.0013
Eccentricity0.0001562
Argument of Perigee269.0131
Mean Anonmoly146.1649
Mean Motion15.40687457
Decay Rate0.00064106
L11 66513U 25263AE 25354.25003472 .00064106 00000+0 15297-2 0 9993
L22 66513 43.0013 81.4423 0001562 269.0131 146.1649 15.40687457 6095



Live tracking and technical data element details for STARLINK-35692 (NORAD 66513). STARLINK-35692 can be tracked NOW for your location showing map with azimuth and elevation plus other details from your city location.







IsCatalogInMostPopularTable: catalog: 66513, numindb: 3
Update: records affected: 1



GetName: 66513 STARLINK-35692

Hit Count: updated at: Sat, 07 Feb 2026 08:55:06 GMT